TimeCST,TemperatureF,Dew PointF,Humidity,Sea Level PressureIn,VisibilityMPH,Wind Direction,Wind SpeedMPH,Gust SpeedMPH,PrecipitationIn,Events,Conditions,WindDirDegrees,DateUTC
12:53 AM,34.0,33.1,96,30.09,8.0,Calm,Calm,-,N/A,,Clear,0,2014-03-07 06:53:00
1:53 AM,33.1,33.1,100,30.08,7.0,Calm,Calm,-,N/A,,Clear,0,2014-03-07 07:53:00
2:53 AM,33.1,32.0,96,30.07,4.0,Calm,Calm,-,N/A,,Clear,0,2014-03-07 08:53:00
3:53 AM,32.0,30.9,96,30.06,5.0,Calm,Calm,-,N/A,,Clear,0,2014-03-07 09:53:00
4:53 AM,30.9,30.0,96,30.05,5.0,Calm,Calm,-,N/A,,Clear,0,2014-03-07 10:53:00
5:53 AM,30.9,30.9,100,30.06,4.0,Calm,Calm,-,N/A,,Clear,0,2014-03-07 11:53:00
6:53 AM,30.9,30.0,96,30.08,8.0,Calm,Calm,-,N/A,,Clear,0,2014-03-07 12:53:00
7:53 AM,37.9,37.0,97,30.10,4.0,Calm,Calm,-,N/A,,Clear,0,2014-03-07 13:53:00
8:53 AM,48.0,46.0,93,30.12,6.0,SE,8.1,-,N/A,,Clear,140,2014-03-07 14:53:00
9:53 AM,54.0,45.0,72,30.12,10.0,SE,3.5,-,N/A,,Clear,130,2014-03-07 15:53:00
10:53 AM,57.9,39.9,51,30.10,10.0,SSE,10.4,-,N/A,,Clear,150,2014-03-07 16:53:00
11:53 AM,61.0,41.0,48,30.08,10.0,South,6.9,-,N/A,,Clear,170,2014-03-07 17:53:00
12:53 PM,63.0,42.1,46,30.03,10.0,SSE,11.5,-,N/A,,Clear,150,2014-03-07 18:53:00
1:53 PM,64.9,43.0,45,29.99,10.0,South,9.2,-,N/A,,Clear,170,2014-03-07 19:53:00
2:53 PM,64.9,44.1,47,29.96,10.0,SE,12.7,-,N/A,,Clear,140,2014-03-07 20:53:00
3:53 PM,64.9,46.0,50,29.96,10.0,SSE,10.4,-,N/A,,Clear,160,2014-03-07 21:53:00
4:53 PM,63.0,46.0,54,29.95,10.0,SSE,12.7,-,N/A,,Clear,150,2014-03-07 22:53:00
5:53 PM,60.1,46.9,62,29.95,10.0,SE,11.5,-,N/A,,Clear,140,2014-03-07 23:53:00
6:53 PM,57.0,46.9,69,29.95,10.0,SE,11.5,-,N/A,,Clear,130,2014-03-08 00:53:00
7:53 PM,55.0,46.9,74,29.97,10.0,SE,10.4,-,N/A,,Clear,140,2014-03-08 01:53:00
8:53 PM,54.0,46.9,77,29.99,10.0,SSE,10.4,-,N/A,,Clear,150,2014-03-08 02:53:00
9:53 PM,53.1,46.9,80,30.00,10.0,ESE,6.9,-,N/A,,Clear,120,2014-03-08 03:53:00
10:26 PM,53.1,48.0,83,30.01,10.0,SE,5.8,-,N/A,,Mostly Cloudy,140,2014-03-08 04:26:00
10:53 PM,53.1,48.0,83,30.01,10.0,SE,4.6,-,N/A,,Overcast,140,2014-03-08 04:53:00
11:53 PM,52.0,48.0,86,30.01,10.0,SE,6.9,-,N/A,,Scattered Clouds,140,2014-03-08 05:53:00